{"data":{"norad_id":66007,"epoch":"2026-05-25T03:29:28.098240Z","epoch_age_seconds":72893,"freshness":"FRESH","line1":"1 66007U 25232C   26145.14546410  .00014297  00000+0  49372-3 0  9996","line2":"2 66007  53.1588 108.6106 0001273 125.9644 234.1475 15.30211397 35137","mean_motion":15.30211397,"eccentricity":0.0001273,"inclination_deg":53.1588,"raan_deg":108.6106,"arg_perigee_deg":125.9644,"mean_anomaly_deg":234.1475,"bstar":0.00049372,"rev_number":3513,"period_min":94.10464481072,"perigee_km":474.30861285633,"apogee_km":476.05346762938,"semimajor_km":6853.3180402429,"source":"CELESTRAK","updated_at":"2026-05-25T13:38:21.013016Z"}}